DECAYED

COSMOS 1275 DEB, 13486 (Decayed)

Orbit data source: Space-Track

COSMOS 1275 DEB, 13486 was space debris in LEO originally from a launch on Thu, 04 Jun 1981 UTC launched from the Plesetsk Missile And Space Complex (PKMTR). Debris objects in space refer to the collection of defunct objects orbiting the Earth. Examples of debris include non-operational satellites, rocket bodies, and fragments generated from explosions, collisions, or faulty payload assembly.

Not visible in the next 10 days
Identifier
13486, 1981-053GG
Orbit
Decayed
Country
Flag of CISCIS
Related business
Manufacturer
Unknown
Mission
Decayed spacecraft
Bus & Motor
Unknown
Mass
Unknown
Launch date (UTC)
1981-06-04 (45 years ago)
Launch vehicle
Unknown
Launch site
Plesetsk Missile And Space Complex (PKMTR)
Object type
Payload
Rocket body
Debris
Shape & HBR
Unknown shape, 0.1 m
Radar Cross Section
Medium (>0.1 m² and <1 m²)

Expand to show TLE details & history
Last TLE update: 9 months ago

TLE from 9 months ago
0 COSMOS 1275 DEB
1 13486U 81053GG  26005.63286502  .16842127 -12817-5  10596-1 0  9992
2 13486  82.8198 193.0287 0012885 343.1197  16.9660 16.17582032248739
Epoch: 2026-01-05T15:11Z
TLE epoch observation values (Epoch: 2026-01-05T15:11:19.537Z)
Latitude
-0.00007°
Longitude
-140.02994°
Altitude
221.213 km
Speed
7.779 km/s
True Right ascension
12h 52m 06s
True Declination
0° 00' 00"
Sunlit
Object was in daylight at epoch
Visualization orbit readout
Latitude
Unknown
Longitude
Unknown
Altitude
Unknown
Speed
Unknown
Apparent Right ascension
Unknown
Apparent Declination
Unknown
Sunlit
N/A
Visualization observer readout
Local Sidereal Time
23:59:49
Azimuth
Unknown
Elevation
Unknown
Doppler factor
Unknown
Orbital elements
Apogee altitude
231.458 km
Perigee altitude
214.447 km
Semi-major axis
6,601.089 km
Eccentricity
0.00129
Inclination
82.8198°
RAAN
193.0287°
Arg. of periapsis
343.1197°
True anomaly
17.00915°
Mean anomaly
16.966°
Eccentric anomaly
16.98757°
Mean motion
4.04687 °/min
Orbital period
88.96 mins
BSTAR
0.010596
Loading maneuver chart data...
Computing Atmospheric mass density...
Loading historical data...
Loading historical data...
Loading historical data...
Loading historical data...
Loading historical data...
Loading historical data...
Loading historical data...

Documentation

Showing up to 5 results
|